Weather in Toul

France     48°40′45″N   5°53′46″E
temp.,
°C
wind,
m/s
gust,
m/s
humid.,
%
clouds,
%
prec.,
mm/h
press.,
hPa
HPBL,
m
16 april, fri
fri1623:00+1ne3580100 0.0 102799
02:000ne388296 0.0 1027198
05:00−1nne398294 0.0 1026235
08:00+1ne4107791 0.0 1026432
11:00+6ne6862100 0.1 10251636
14:00+6ne575999 0.4 10251430
17:00+6ne5761100 0.1 10241346
20:00+5ne377090 0.1 1024396
17 april, sat
sat1723:00+2nne248275 0.0 102590
02:00+1ne269290 0.0 1025124
05:000nne379495 0.0 1024160
08:00+1nne26867 0.0 1025182
11:00+7ne46648 0.0 10241053
14:00+10ne565597 0.1 10221729
17:00+11ne564632 0.0 10201910
20:00+7ne487384 0.0 1021302
18 april, sun
sun1823:00+6nne2374100 0.0 102298
02:00+6nne2476100 0.0 1022113
05:00+5ne2683100 0.0 1021204
08:00+6ne2585100 0.0 1022339
11:00+8ne447579 0.0 1022898
14:00+8ne447098 0.1 1021893
17:00+9ene2467100 0.0 1021730
20:00+8n117477 0.1 102130
19 april, mon
mon1923:00+6n117794 0.0 102110
02:00+6n117696 0.0 102111
05:00+5ne118365 0.0 102010
08:00+5ene118417 0.0 102043
11:00+10ene116875 0.0 1019782
14:00+12ne226133 0.9 10171253
17:00+13ne226231 1.3 10161135
20:00+9ne22785 2.1 101622
20 april, tue
tue2023:00+6ne11855 0.1 101710
02:00+5ne11885 0.1 101610
05:00+4e01915 0.0 101610
08:00+6e01895 0.0 101541
11:00+11ene22715 0.1 1014530
14:00+14ne115817 0.8 10131303
17:00+15n11537 0.4 10111474
20:00+11ne117281 0.6 101110